USA 253

Last updated on Tue Mar 02 2021 07:46:31 GMT+0000 (Coordinated Universal Time)

1 40099U 14043A 21060.42036264 -.00000058 00000-0 00000+0 0 9993 2 40099 0.4015 99.9240 0003416 319.6186 130.6873 0.96762385 8647
UTC large
Height (km)
Speed (km/s)
/
Latitude / Longitude
Inclination (degrees)
Orbital Period (minutes)
Azimuth
Elevation
Range (km)
Doppler Factor

Next 0 passes for location: London (51.5072 / 0.1276)

Sorry there are no passes over London.
USA 253